Погода в Янджу

Южная Корея     37°48′31″N   127°01′06″E
темп.,
°C
ветер,
м/с
пор.,
м/с
влажн.,
%
обл.,
%
осадки,
мм/ч
давл.,
гПа
погр.,
м
4 июля, пн
пн400:00+27ссв016689 0.0 100815
03:00+26ссз007135 0.0 100712
06:00+25в0075100 0.1 100635
09:00+29ю1162100 0.1 1006644
12:00+32зюз115097 0.0 10061301
15:00+33с2248100 0.2 10041640
18:00+29сз3468100 1.1 1004509
21:00+27ссз118298 2.3 100560
5 июля, вт
вт500:00+26зюз0085100 0.1 100516
03:00+25ссв118991 0.3 100521
06:00+25в1190100 0.9 100532
09:00+28св017351 1.6 1006471
12:00+33юз115145 0.0 10041509
15:00+30сз3471100 1.4 1004359
18:00+30сз22643 0.8 1004868
21:00+27юз1186100 5.2 100541
6 июля, ср
ср600:00+25юз0192100 3.3 100633
03:00+24в119381 5.1 100637
06:00+24вюв1193100 0.0 100775
09:00+25вюв1286100 0.1 1007349
12:00+25вюв2386100 0.6 1007304
15:00+29юв3566100 0.6 1006895
18:00+29вюв467394 0.7 1005795
21:00+26вюв228393 1.9 100674
7 июля, чт
чт700:00+25вюв248874 0.3 1007190
03:00+24вюв2391100 0.3 100690
06:00+24вюв2390100 0.1 1006108
09:00+28юв3873100 0.3 1006844
12:00+31ю5956100 0.1 10051738
15:00+25ююз1493100 6.9 1004283
18:00+25ю2793100 3.4 1003560
21:00+25ююз2998100 14.2 1004692
8 июля, пт
пт800:00+24ююз1699100 2.7 1003583
03:00+24ю2799100 5.7 1003544
06:00+24ю1599100 3.8 1002469
09:00+24ююз1499100 5.9 1003429
12:00+25зюз239383 1.2 1003365
15:00+27зсз238399 3.5 1001682
18:00+27з127869 0.1 1001100
21:00+24зюз11890 0.2 100329